Regional Weather Roundup
Issued by NWS

Home | Current Version | Previous Version | Graphics & Text | Print | Product List | Glossary On
Versions: 1 2 3 4 5 6 7 8 9 10 11 12 13 14 15 16 17 18 19 20 21 22 23 24 25 26 27 28 29 30 31 32 33 34 35 36 37 38 39 40 41 42 43 44 45 46 47 48 49 50
000
ASUS45 KTFX 290704
RWRMT
MONTANA HOURLY WEATHER ROUNDUP
NATIONAL WEATHER SERVICE GREAT FALLS MT
1204 AM MST SAT NOV 29 2014

NOTE: "FAIR" INDICATES FEW OR NO CLOUDS BELOW 12000 FEET WITH NO
SIGNIFICANT WEATHER AND/OR OBSTRUCTIONS TO VISIBILITY.

* THESE STATIONS ARE NOT UNDER NWS QUALITY CONTROL. THEY DO NOT
   REPORT WEATHER SUCH AS PRECIPITATION OR FOG.

MTZ001>007-043-290800-
WEST OF THE DIVIDE
CITY           SKY/WX    TMP DP  RH WIND       PRES   REMARKS
KALISPELL      CLOUDY    41  37  86 SE8       29.19F
MISSOULA       CLOUDY    43  36  76 E7        29.33F
BUTTE          MOCLDY    37  28  70 S12       29.43F WCI  29
MULLAN PASS    SNOW      30  30 100 SW10G26   29.23F VSB 1/2  WCI  21
* LINCOLN      N/A       41  32  70 NW4G14     N/A
* LOOKOUT PASS N/A       36  33  89 SE10G23    N/A   WCI  29
* POLSON       N/A       44  36  74 SW5G15     N/A
* RONAN APT    CLOUDY    46  34  63 SE14G20    N/A
* SEELEY LAKE  N/A       41  32  70 S7G13      N/A
* THOMP F APT  CLOUDY    32  15  49 NE2G7      N/A
* YAAK HILL    N/A       43  40  89 E1         N/A
$$

MTZ008-052>055-290800-
SOUTHWEST MONTANA
CITY           SKY/WX    TMP DP  RH WIND       PRES   REMARKS
BOZEMAN        MOCLDY    39  19  45 CALM      29.41F
DILLON         PTCLDY    39  19  45 S12       29.44F WCI  32
* W YELLOWSTON MOCLDY    35  19  52 SW6G15     N/A   WCI  30
* ENNIS APT    PTCLDY    46  16  30 S17G23     N/A
* THREE FORKS  PTCLDY    48  25  41 S7         N/A
* BOULDER HILL N/A       39  23  53 S21G37     N/A   WCI  29
* MONIDA PASS  N/A       36  13  39 S16G24     N/A   WCI  26
* RAYNOLDS PAS N/A       38  19  46 SE30G39    N/A   WCI  26
* WHITEHALL    N/A       47  19  33 SW12G18    N/A
* WISE RIVER   N/A       36  30  79 W4G20      N/A
$$

MTZ009>010-012-014-046-048-049-054-290800-
EAST SLOPES AND CENTRAL MONTANA
CITY           SKY/WX    TMP DP  RH WIND       PRES   REMARKS
CUT BANK       LGT SNOW  -8 -11  86 N14       29.63S VSB 1    WCI -29
GREAT FALLS    CLOUDY     0  -8  68 NW14      29.62R WCI -19
HELENA         CLOUDY    21  16  81 N9        29.40R WCI  11
MALMSTROM AFB  LGT SNOW   0  -8  68 NW13      29.66R WCI -18
* DEARBORN     N/A        4  -3  72 N/A        N/A
* EAST GLACIER N/A      -11 -16  78 NE7        N/A   WCI -26
* MONARCH      N/A       -3  -8  79 NW8        N/A   WCI -18
* PENDROY      N/A       -9 -11  91 N19G24     N/A   WCI -33
* ROGERS PASS  N/A        0  -6  75 S2         N/A
* SAINT MARY   N/A      -10 -17  71 SE2G7      N/A
* SWEET GRASS  N/A       -9 -12  86 N20G26     N/A   WCI -34
$$

MTZ011-013-016-021-035-040-045-047-050-051-290800-
NORTH CENTRAL MONTANA
CITY           SKY/WX    TMP DP  RH WIND       PRES   REMARKS
HAVRE          CLOUDY     0  -9  65 NW16      29.71R WCI -20
LEWISTOWN      CLOUDY     3   0  87 NW14      29.51R WCI -15
* N BAR RANCH  FOG       18  16  92 VRB5      29.42R VSB M1/4 WCI  11
* CHESTER      N/A       -3 -10  71 E8G14      N/A   WCI -18
* DENTON       N/A        2  -1  87 NW11G19    N/A   WCI -14
* GEYSER       N/A        0  -3  87 W24G31     N/A   WCI -24
* JUDITH GAP   N/A        5   4  96 VRB22G27    N/A   WCI -16
* LOMA         N/A        1  -5  75 NW9G14     N/A   WCI -14
$$

MTZ017>020-022>027-061-062-290800-
NORTHEAST MONTANA
CITY           SKY/WX    TMP DP  RH WIND       PRES   REMARKS
GLASGOW        CLOUDY     7   1  76 NW22      29.57R WCI -14
GLENDIVE       CLOUDY    27  25  92 N12       29.45S WCI  16
JORDAN         PTCLDY    16  12  84 N17G23    29.53R
SIDNEY         CLOUDY    25  19  78 CALM      29.47S
WOLF POINT     CLOUDY    16   9  74 N13       29.55R WCI   2
* BEAVER HILL  N/A       24  22  92 NW18       N/A   WCI  10
* CIRCLE       N/A       17  14  88 NW17G22    N/A   WCI   1
* LINDSAY DVD  N/A       25  24  96 NW17G23    N/A   WCI  12
* NAVAJO       N/A        8   4  84 NW17G25    N/A   WCI -10
* SACO         N/A        5  -1  76 NW17G26    N/A   WCI -14
$$

MTZ028>042-056>058-290800-
SOUTHCENTRAL AND SOUTHEAST MONTANA
CITY           SKY/WX    TMP DP  RH WIND       PRES   REMARKS
BAKER          MOCLDY    34  30  85 NW10      29.40R WCI  26
BILLINGS       PTCLDY    46  18  33 NE6       29.37R
LIVINGSTON     MOCLDY    52  16  24 SW37G46   29.36S
MILES CITY     CLOUDY    30  28  92 N13       29.43R WCI  20
* LAUREL APT   PTCLDY    52  18  26 SW10       N/A
* ALZADA       N/A       46  23  40 S7         N/A
* LAME DEER    N/A       49  14  24 SW11G18    N/A
* REED POINT   N/A       43  21  42 SE6        N/A
* ROSCOE HILL  N/A       51  -2  11 S24G42     N/A
$$

REGIONAL REPORTS...DAKOTAS
CITY           SKY/WX    TMP DP  RH WIND       PRES   REMARKS
WILLISTON      CLOUDY    21  18  88 N14       29.46S WCI   8
DICKINSON      CLOUDY    39  30  70 NW14      29.34R WCI  31
BEACH          FOG       27  27 100 N16       29.42R WCI  15
CROSBY         CLOUDY    14  14 100 NW10      29.48R WCI   1
BISMARCK       CLOUDY    21  18  88 E5        29.39F WCI  14
GRAND FORKS    CLOUDY    18  12  77 S9        29.52F WCI   7
FARGO          CLOUDY    21  16  81 S15       29.53F WCI   7
BUFFALO SD     PTCLDY    39  27  62 W12       29.33F WCI  32
RAPID CITY     PTCLDY    48  19  32 W16       29.46F
$$

REGIONAL REPORTS...WYOMING/IDAHO/WASHINGTON
CITY           SKY/WX    TMP DP  RH WIND       PRES   REMARKS
GILLETTE       CLEAR     48  18  30 SW20      29.49F
SHERIDAN       PTCLDY    57  16  20 SW33G48   29.38F
CODY           PTCLDY    46  16  30 SW10      29.51S
YELLOWSTONE LA CLOUDY    36  10  34 W9G21     29.63F WCI  29
SALMON         CLOUDY    46  28  50 N7        29.47S
MULLAN PASS    SNOW      30  30 100 SW10G26   29.23S VSB 1/2  WCI  21
SAND POINT     CLOUDY    45  43  93 SW13G21   29.19S
SPOKANE        FOG       45  43  93 SW21      29.26R
$$

REGIONAL REPORTS...ALBERTA
CITY           SKY/WX    TMP DP  RH WIND       PRES   REMARKS
LETHBRIDGE     LGT SNOW  -6 -11  78 NW14      29.75R VSB 3/4  WCI -26
MEDICINE HAT   LGT SNOW  -6  -9  87 NW17      29.77R VSB 1    WCI -28

$$




USA.gov is the U.S. government's official web portal to all federal, state and local government web resources and services.